LiveATC.Net - Listen to live air traffic control over the Internet!


ICAO: CSG3  IATA: CSG3   Airport: Joliette Airport
City: Joliette   State/Province: Quebec
Country: Canada   Continent: North America
CYHU METAR Weather: CYHU 250700Z AUTO 20005KT 9SM CLR 10/09 A3013 RMK SLP205
CSG3 Flight Activity (FlightAware)

CSG3 CTAF
Feed Status: UP   Listeners: 0
Listen in your browser - HTML5 player (in browser, HTML5)
Click here to listen with your own player (launches your MP3 player)
CSG3 CTAF Audio Archives
FacilityFrequency
Joliette CTAF123.500

NOTICE

Unauthorized use prohibited. See LiveATC.net Terms of Service


Find LiveATC Audio Streams


Airport/ARTCC Code

Frequency Search
(e.g., 124.400, 128.75)
Site-wide search
 


Browse LiveATC Feeds
Top 50 LiveATC Feeds
LiveATC Feed Map
Bad Weather Areas

LiveATC FAQ
Offer LiveATC feed
Contact LiveATC.net
Press Inquiries

LiveATC on iPhone
LiveATC on Android

Windows Phone
Windows 8/10

LiveATC Mobile
(Mobile browser)

ATC Audio Archives
Interesting Recordings

LiveATC Forums


Home Page
About LiveATC.net
Make a Donation
Terms of Use
Privacy Policy

Canadian Air Freqs

AIRMETs/SIGMETs

FAA Airport Status
Nat'l Airspace Status
Arrival Demand Charts


Server Software By:
Icecast.org
Liquidsoap